Custer, SD

9:53 PM MDT on May 27, 2017 (GMT -0600)
Custer County

Weather History for KCUT - January, 2014

Change the Weather History Date:

Wednesday, January 1, 2014

  Actual Average Record
Temperature  
Mean Temperature 27 °F 24 °F  
Max Temperature 37 °F 34 °F 54 °F (1963)
Min Temperature 16 °F 13 °F -23 °F (1952)
Degree Days  
Heating Degree Days 38 41  
Month to date heating degree days 38 41  
Since 1 July heating degree days 3498 3511  
Cooling Degree Days 0 0  
Month to date cooling degree days 0 0  
Year to date cooling degree days 0 0  
Moisture  
Dew Point 14 °F    
Average Humidity 62    
Maximum Humidity 84    
Minimum Humidity 39    
Precipitation  
Precipitation 0.01 in 0.01 in 0.41 in (1976)
Month to date precipitation 0.01 0.01  
Year to date precipitation 0.01 0.01  
Sea Level Pressure  
Sea Level Pressure 30.14 in    
Wind  
Wind Speed 7 mph (WNW)    
Max Wind Speed 21 mph    
Max Gust Speed 28 mph    
Visibility 10 miles    
Events Snow    
T = Trace of Precipitation, MM = Missing Value Source: NWS Daily Summary

Daily Weather History Graph

Daily Weather History Graph

Search for Another Location

Airport or City:

Trip Planner

Search our weather history database for the weather conditions in past years. The results will help you decide how hot, cold, wet, or windy it might be!

Date:

Astronomy

Jan. 01, 2014 Rise Set
Actual Time 7:28 AM MST 4:28 PM MST
Civil Twilight 6:55 AM MST 5:00 PM MST
Nautical Twilight 6:19 AM MST 5:37 PM MST
Astronomical Twilight 5:44 AM MST 6:11 PM MST
Moon 7:18 AM MST (1/1) 5:18 PM MST (1/1)
Length of Visible Light 10h 05m
Length of Day
8h 59m
New Moon, 0% of the Moon is Illuminated
Jan 1
New Moon
Jan 7
First Quarter
Jan 15
Full
Jan 23
Last Quarter
Jan 30
New

Hourly Weather History & Observations

Time (MST) Temp. Windchill Dew Point Humidity Pressure Visibility Wind Dir Wind Speed Gust Speed Precip Events Conditions
12:53 AM 30.9 °F 27.5 °F 21.9 °F 69% 29.91 in 10.0 mi West 3.5 mph - N/A   Overcast
1:53 AM 32.0 °F 27.5 °F 19.0 °F 59% 29.94 in 10.0 mi Variable 4.6 mph - N/A   Overcast
2:53 AM 30.9 °F - 19.0 °F 61% 29.94 in 10.0 mi Calm Calm - N/A   Overcast
3:53 AM 30.0 °F - 17.1 °F 59% 29.94 in 10.0 mi Calm Calm - N/A   Overcast
4:53 AM 34.0 °F 29.8 °F 12.0 °F 40% 29.99 in 10.0 mi North 4.6 mph - N/A   Scattered Clouds
5:53 AM 32.0 °F 26.4 °F 10.9 °F 42% 30.04 in 10.0 mi NNE 5.8 mph - N/A   Overcast
6:53 AM 33.1 °F 25.5 °F 12.0 °F 42% 30.05 in 10.0 mi NNE 9.2 mph - N/A   Overcast
7:53 AM 30.0 °F 21.1 °F 16.0 °F 56% 30.10 in 9.0 mi North 10.4 mph 19.6 mph N/A   Overcast
8:53 AM 24.1 °F - 19.0 °F 81% 30.17 in 3.0 mi Calm Calm - 0.01 in Snow Light Snow
9:53 AM 28.0 °F 22.8 °F 17.1 °F 63% 30.16 in 10.0 mi Variable 4.6 mph - 0.00 in   Clear
10:53 AM 28.0 °F 24.2 °F 15.1 °F 58% 30.16 in 10.0 mi Variable 3.5 mph - N/A   Clear
11:53 AM 28.0 °F 21.7 °F 15.1 °F 58% 30.16 in 10.0 mi Variable 5.8 mph - N/A   Mostly Cloudy
12:53 PM 27.0 °F 17.3 °F 14.0 °F 58% 30.18 in 10.0 mi NNW 10.4 mph 20.7 mph N/A   Scattered Clouds
1:53 PM 25.0 °F 15.5 °F 10.9 °F 55% 30.20 in 10.0 mi NNW 9.2 mph 25.3 mph N/A   Mostly Cloudy
2:53 PM 30.0 °F 20.5 °F 10.9 °F 45% 30.19 in 10.0 mi WNW 11.5 mph 18.4 mph N/A   Mostly Cloudy
3:53 PM 27.0 °F 20.5 °F 12.0 °F 53% 30.23 in 10.0 mi West 5.8 mph - N/A   Clear
4:53 PM 21.0 °F 16.2 °F 10.9 °F 65% 30.26 in 10.0 mi West 3.5 mph - N/A   Clear
5:53 PM 17.1 °F 6.6 °F 10.0 °F 74% 30.27 in 10.0 mi West 8.1 mph - N/A   Clear
6:53 PM 24.1 °F 18.2 °F 9.0 °F 53% 30.24 in 10.0 mi WSW 4.6 mph - N/A   Clear
7:53 PM 17.1 °F 6.6 °F 10.9 °F 77% 30.28 in 10.0 mi West 8.1 mph - N/A   Clear
8:53 PM 23.0 °F 17.0 °F 8.1 °F 53% 30.27 in 10.0 mi WSW 4.6 mph - N/A   Clear
9:53 PM 17.1 °F 6.6 °F 12.9 °F 84% 30.27 in 10.0 mi West 8.1 mph - N/A   Mostly Cloudy
10:09 PM 17.6 °F 5.0 °F 14.0 °F 86% 30.11 in 10.0 mi West 11.5 mph - N/A   Mostly Cloudy
10:42 PM 19.4 °F 7.2 °F 15.8 °F 86% 30.10 in 10.0 mi West 11.5 mph 23.0 mph N/A   Mostly Cloudy
10:53 PM 19.9 °F 6.7 °F 16.0 °F 85% 30.24 in 10.0 mi West 13.8 mph - N/A   Mostly Cloudy
11:04 PM 19.4 °F 8.6 °F 15.8 °F 86% 30.10 in 10.0 mi West 9.2 mph 21.9 mph N/A   Scattered Clouds
11:53 PM 19.9 °F 4.8 °F 15.1 °F 81% 30.22 in 10.0 mi WNW 18.4 mph 27.6 mph N/A   Partly Cloudy